Hourly Data Report for January 02, 2017

All times are specified in Local Standard Time (LST). Add 1 hour to adjust for Daylight Saving Time where and when it is observed.

ST LEONARD CS
NEW BRUNSWICK

47°09'28.050" N
67°49'55.014" W
245.00 m
810I001
71019
WIY

Download Data

Hourly Data (January 2017)
Hourly Data Report for January 2, 2017
Temp Definition
°C
Dew Point Temp Definition
°C
Rel Hum Definition
%
Wind Dir Definition
10's deg

Wind Spd Definition
km/h
Visibility Definition
km
Stn Press Definition
kPa
Hmdx Definition


Wind Chill Definition


Weather Definition


TIME
00:00 -8.5 -9.7 91 32 13   99.47   -14 LegendNANA
01:00 -9.0 -10.1 91 28 9   99.56   -14 LegendNANA
02:00 -9.9 -10.8 93 32 9   99.58   -15 LegendNANA
03:00 -12.2 -12.7 96 29 10   99.69   -18 LegendNANA
04:00 -11.1 -11.7 96 29 9   99.76   -16 LegendNANA
05:00 -12.7 -13.6 93 29 5   99.82   -16 LegendNANA
06:00 -16.0 -17.2 90 10 5   99.85   -20 LegendNANA
07:00 -15.4 -16.5 91 15 4   99.92   -18 LegendNANA
08:00 -15.2 -16.2 92 14 4   99.96   -18 LegendNANA
09:00 -15.1 -16.1 92 0 1   100.02   -16 LegendNANA
10:00 -13.3 -14.1 94 15 2   100.09   -15 LegendNANA
11:00 -9.3 -10.9 89 27 4   100.15   -12 LegendNANA
12:00 -8.4 -11.2 80 30 6   100.08   -12 LegendNANA
13:00 -7.1 -10.9 74 31 5   100.12   -10 LegendNANA
14:00 -5.7 -9.9 72 26 7   100.09   -9 LegendNANA
15:00 -4.4 -9.1 70 27 6   100.09   -7 LegendNANA
16:00 -5.3 -8.9 76 14 8   100.09   -9 LegendNANA
17:00 -7.3 -9.3 86 13 7   100.13   -11 LegendNANA
18:00 -10.3 -11.1 94 12 3   100.16   -12 LegendNANA
19:00 -12.3 -13.0 94 10 6   100.15   -16 LegendNANA
20:00 -11.1 -11.9 94 16 7   100.17   -15 LegendNANA
21:00 -13.4 -14.3 93 28 1   100.17   -14 LegendNANA
22:00 -11.3 -11.7 97 33 8   100.16   -16 LegendNANA
23:00 -11.5 -12.4 93 34 6   100.14   -15 LegendNANA

Notes on Data Quality.

Legend

  • E = Estimated
  • M = Missing
  • NA = Not Available
  • ‡ = Partner data that is not subject to review by the National Climate Archives
Date modified: